DateTimeUTC,F1_A11,F1_S11,BsB_S11,BsG_S11,BsR_S11,BbsB_S11,BbsG_S11,BbsR_S11,BaB_A11,BaG_A11,BaR_A11,Tu_S11,T_S11,Uu_S11,U_S11,P_S11,T1_A11
2021-09-20T11:00:00Z,00000200,21000000,,,,,,,0000.50,0000.53,0000.77,17.7,24.7,01.2,00.8,0657.0,30.9
2021-09-20T11:01:00Z,00000200,21000000,,,,,,,0000.40,0000.34,0000.24,17.7,24.7,01.2,00.8,0657.0,30.9
2021-09-20T11:02:00Z,00000200,21000000,,,,,,,0000.16,0000.47,0000.00,17.7,24.7,01.2,00.8,0657.0,30.9
2021-09-20T11:03:00Z,00000200,61000000,,,,,,,0000.77,0000.24,0000.61,17.7,24.7,01.2,00.8,0657.1,31.0
2021-09-20T11:04:00Z,00000200,41000000,0002.49,0002.04,0001.31,0000.43,0000.26,0000.38,0000.34,0000.45,0000.25,18.1,24.6,01.7,01.2,0658.0,31.0
2021-09-20T11:05:00Z,00000200,01000000,0003.34,0002.08,0001.35,-000.04,-000.01,0000.66,0000.71,0000.87,0000.19,18.3,24.6,01.7,01.1,0658.1,31.0
2021-09-20T11:06:00Z,00000200,01000000,0003.15,0002.37,0001.66,0000.73,0000.63,0000.34,0000.77,0000.39,0000.88,18.3,24.6,01.7,01.2,0658.1,30.9
2021-09-20T11:07:00Z,00000200,01000000,0003.50,0002.45,0001.54,0000.92,0000.31,0000.42,-000.08,0000.74,0000.26,18.2,24.6,01.6,01.1,0658.1,30.9
2021-09-20T11:08:00Z,00000200,01000000,0003.55,0002.48,0001.12,0000.73,0000.15,0000.27,0000.99,0000.72,0000.56,18.2,24.6,01.7,01.2,0658.1,30.9
2021-09-20T11:09:00Z,00000200,01000000,0002.28,0001.86,0001.68,0000.66,0000.37,0000.26,0000.77,0000.55,0000.54,18.2,24.6,01.7,01.1,0658.1,30.9
2021-09-20T11:10:00Z,00000200,01000000,0002.75,0002.02,0001.53,0000.79,0000.34,0000.17,0000.66,0000.37,0000.55,18.1,24.6,01.7,01.1,0658.1,30.9
2021-09-20T11:11:00Z,00000200,01000000,0003.29,0002.70,0001.55,0000.67,0000.16,0000.33,0000.77,0000.60,0000.16,18.1,24.5,01.6,01.1,0658.0,30.9
2021-09-20T11:12:00Z,00000200,01000000,0003.72,0002.24,0001.45,0000.30,0000.38,0000.35,-000.13,-000.02,0000.41,18.1,24.5,01.5,01.0,0658.0,30.9
2021-09-20T11:13:00Z,00000200,01000000,0003.46,0002.18,0001.59,0000.83,0000.19,0000.37,0000.22,0000.38,0000.16,18.1,24.5,01.5,01.0,0658.0,30.9
2021-09-20T11:14:00Z,00000200,01000000,0002.81,0002.28,0001.35,0000.83,0000.50,0000.29,0000.71,0000.14,0000.38,18.0,24.5,01.3,00.9,0658.0,30.9
2021-09-20T11:15:00Z,00000200,01000000,0003.84,0002.52,0001.43,0000.87,0000.25,0000.47,0001.11,0000.93,0000.67,18.0,24.5,01.5,01.0,0658.0,30.9
2021-09-20T11:16:00Z,00000200,01000000,0004.34,0002.75,0001.63,0000.85,0000.37,0000.02,0000.64,0001.07,0000.46,18.1,24.5,01.4,01.0,0658.0,30.9
2021-09-20T11:17:00Z,00000200,01000000,0003.59,0002.51,0001.91,0000.34,0000.34,0000.39,0000.48,0000.42,0000.18,18.2,24.5,01.3,00.9,0658.1,30.9
2021-09-20T11:18:00Z,00000200,01000000,0003.97,0002.75,0001.84,0001.27,0000.37,0000.77,0000.21,0000.12,0000.50,18.3,24.5,01.2,00.8,0658.1,30.9
2021-09-20T11:19:00Z,00000200,01000000,0003.57,0002.43,0001.60,0000.27,0000.38,0000.36,0000.31,0000.32,0000.13,18.3,24.5,01.2,00.8,0658.1,31.0
2021-09-20T11:20:00Z,00000200,01000000,0002.80,0002.49,0001.50,0000.77,0000.34,0000.31,0000.18,0000.67,0000.30,18.3,24.6,01.1,00.8,0658.1,31.0
2021-09-20T11:21:00Z,00000200,01000000,0003.79,0002.47,0001.10,0000.47,0000.48,0000.28,-000.05,-000.21,-000.27,18.3,24.6,01.0,00.7,0658.1,31.0
2021-09-20T11:22:00Z,00000200,01000000,0003.70,0001.99,0001.49,0000.38,0000.45,0000.32,0000.83,0000.57,0000.59,18.3,24.6,00.9,00.6,0658.1,31.0
2021-09-20T11:23:00Z,00000200,01000000,0003.13,0002.55,0001.43,0000.52,0000.38,-000.01,0000.81,0000.72,0000.45,18.3,24.5,00.9,00.6,0658.0,30.9
2021-09-20T11:24:00Z,00000200,01000000,0002.99,0002.34,0001.08,0000.65,0000.37,0000.11,0000.24,0000.35,0000.51,18.2,24.5,00.9,00.6,0658.0,30.9
2021-09-20T11:25:00Z,00000200,01000000,0002.55,0002.09,0001.36,0000.58,0000.25,0000.25,0001.17,0000.76,0000.57,18.2,24.5,00.8,00.5,0658.0,30.9
2021-09-20T11:26:00Z,00000200,01000000,0003.60,0002.65,0001.51,0000.89,0000.30,0000.17,0000.64,0000.97,0000.68,18.2,24.5,00.9,00.6,0658.0,30.9
2021-09-20T11:27:00Z,00000200,01000000,0003.41,0002.77,0001.76,0000.63,0000.40,0000.49,0000.42,0000.20,0000.29,18.2,24.5,00.9,00.6,0658.0,30.9
2021-09-20T11:28:00Z,00000200,01000000,0004.03,0002.48,0001.39,0000.75,0000.23,0000.30,0000.56,0000.84,0000.40,18.1,24.5,00.9,00.6,0658.0,30.9
2021-09-20T11:29:00Z,00000200,01000000,0003.20,0002.44,0001.45,0001.25,0000.36,0000.23,0000.70,0000.37,0000.74,18.1,24.5,00.8,00.5,0658.1,30.9
2021-09-20T11:30:00Z,00000200,01000000,0003.41,0002.68,0001.51,0000.96,0000.31,0000.44,0000.35,0000.18,-000.21,18.1,24.4,00.8,00.5,0658.1,30.9
2021-09-20T11:31:00Z,00000200,01000000,0003.95,0002.43,0001.53,0000.59,0000.62,0000.20,0000.57,0000.53,0000.93,18.2,24.4,00.5,00.4,0658.1,30.9
2021-09-20T11:32:00Z,00000200,01000000,0003.56,0002.44,0001.61,0000.96,0000.36,0000.05,0000.35,0000.41,-000.25,18.3,24.5,00.6,00.4,0658.1,30.9
2021-09-20T11:33:00Z,00000200,01000000,0003.47,0002.50,0001.65,0000.02,0000.47,0000.47,0000.60,0000.44,0000.51,18.4,24.5,00.5,00.4,0658.1,31.0
2021-09-20T11:34:00Z,00000200,01000000,0003.18,0002.62,0001.39,0000.40,-000.05,0000.19,0000.47,0000.59,0000.57,18.4,24.6,00.4,00.3,0658.1,31.0
2021-09-20T11:35:00Z,00000200,01000000,0003.56,0002.56,0001.55,0000.79,0000.33,0000.68,0000.97,0000.63,0000.46,18.4,24.6,00.5,00.3,0658.1,31.0
2021-09-20T11:36:00Z,00000200,01000000,0003.00,0002.29,0001.38,0000.16,0000.32,0000.42,0000.79,0000.74,0000.49,18.4,24.6,00.4,00.3,0658.1,31.0
2021-09-20T11:37:00Z,00000200,01000000,0002.89,0002.10,0001.50,0000.69,0000.34,0000.29,0000.38,0000.50,0000.46,18.4,24.6,00.4,00.3,0658.1,30.9
2021-09-20T11:38:00Z,00000200,01000000,0002.83,0002.43,0001.27,0000.25,0000.43,0000.35,0000.69,0000.51,0000.56,18.4,24.6,00.5,00.3,0658.1,30.9
2021-09-20T11:39:00Z,00000200,01010000,0003.33,0002.05,0001.61,0000.85,0000.41,0000.42,0000.41,0000.50,0000.28,18.3,24.6,00.4,00.3,0658.1,31.0
2021-09-20T11:40:00Z,00000200,01000000,0002.11,0002.28,0001.23,0000.59,0000.47,0000.22,0000.69,0000.76,0000.28,18.3,24.6,00.4,00.3,0658.1,30.9
2021-09-20T11:41:00Z,00000200,01000000,0003.35,0002.28,0001.36,0000.40,0000.46,0000.44,0000.22,0000.40,0000.45,18.3,24.6,00.4,00.3,0658.1,30.9
2021-09-20T11:42:00Z,00000200,01000000,0002.71,0002.32,0001.39,0000.56,0000.19,-000.10,0000.31,-000.03,0000.06,18.3,24.5,00.3,00.2,0658.1,30.9
2021-09-20T11:43:00Z,00000200,01000000,0002.69,0002.22,0001.38,0000.66,0000.09,0000.21,0000.08,0000.25,0000.46,18.3,24.5,00.3,00.2,0658.1,30.9
2021-09-20T11:44:00Z,00000200,01000000,0003.36,0002.43,0001.61,0000.35,0000.74,0000.64,0000.88,0000.40,0000.21,18.3,24.5,00.2,00.1,0658.1,30.9
2021-09-20T11:45:00Z,00000200,01000000,0003.20,0002.63,0001.62,0000.22,0000.36,0000.22,0000.44,0000.42,0000.10,18.3,24.5,00.2,00.1,0658.1,30.9
2021-09-20T11:46:00Z,00000200,01000000,0002.37,0002.33,0001.14,0001.08,0000.41,0000.10,0000.82,0000.27,0000.57,18.3,24.5,00.1,00.1,0658.1,30.9
2021-09-20T11:47:00Z,00000200,01000000,0002.47,0002.16,0001.22,0000.26,0000.02,0000.53,0000.58,0001.22,0000.49,18.4,24.5,00.1,00.1,0658.1,30.9
2021-09-20T11:48:00Z,00000200,01000000,0002.58,0002.04,0001.28,0000.30,0000.24,0000.11,0000.72,0000.52,0000.68,18.4,24.6,00.2,00.1,0658.1,31.0
2021-09-20T11:49:00Z,00000200,01000000,0003.01,0001.93,0001.50,0000.79,0000.44,0000.47,0000.60,0000.61,0000.55,18.4,24.6,00.2,00.1,0658.1,31.0
2021-09-20T11:50:00Z,00000200,01000000,0002.91,0002.51,0001.37,0000.36,0000.12,0000.21,0000.70,0000.69,0000.63,18.4,24.6,00.2,00.1,0658.1,31.0
2021-09-20T11:51:00Z,00000200,01000000,0002.78,0002.31,0001.04,0000.23,0000.45,0000.30,0000.53,0000.76,0000.19,18.4,24.6,00.2,00.1,0658.1,31.0
2021-09-20T11:52:00Z,00000200,01000000,0003.14,0002.40,0001.91,0000.41,0000.44,0000.38,0000.68,0000.47,0000.37,18.4,24.6,00.3,00.2,0658.1,30.9
2021-09-20T11:53:00Z,00000200,01000000,0003.38,0002.40,0001.57,0001.33,0000.40,0000.72,0001.01,0000.39,0000.36,18.4,24.6,00.3,00.2,0658.1,30.9
2021-09-20T11:54:00Z,00000200,01000000,0003.45,0002.37,0001.18,0000.62,-000.04,-000.03,0000.40,0000.49,0000.55,18.4,24.6,00.2,00.1,0658.1,30.9
2021-09-20T11:55:00Z,00000200,01000000,0002.84,0001.92,0001.47,0000.94,0000.16,0000.77,0000.46,0000.68,0000.41,18.3,24.5,00.3,00.2,0658.1,30.9
2021-09-20T11:56:00Z,00000200,01000000,0002.08,0002.25,0001.00,0000.48,0000.11,0000.21,0000.60,0000.73,0000.10,18.3,24.5,00.3,00.2,0658.1,30.9
2021-09-20T11:57:00Z,00000200,41000000,,,,,,,0000.95,0000.47,0000.89,18.3,24.6,,00.0,0658.1,30.9
2021-09-20T11:58:00Z,00000200,61000000,,,,,,,-000.70,-000.60,-000.55,18.0,24.6,00.3,00.2,0657.2,30.9
2021-09-20T11:59:00Z,00000200,21000000,,,,,,,-000.35,-000.44,-000.16,18.0,24.7,00.2,00.2,0657.1,30.9
